Location: Broekland
(52.3610°N, 6.2005°E)
Time: 17:44:11
(UTC+00:00)

Cosmos 158 Rocket - Pass Details

Date: 19 May 2025
Orbit: 694 x 787 km, 74.0° (Epoch: 16 June)

Event Time Altitude Azimuth Distance (km) Brightness Sun altitude
Rises 20:31:47 0° 195° (SSW) 3,233 6.9 -7.8°
Reaches altitude 10° 20:34:09 10° 192° (SSW) 2,321 6.2 -8.0°
Maximum altitude 20:39:24 68° 111° (ESE) 846 4.0 -8.6°
Drops below altitude 10° 20:44:44 10° 29° (NNE) 2,360 6.8 -9.1°
Sets 20:47:09 0° 27° (NNE) 3,293 7.6 -9.3°
